SCP
0 0 0 0 0 0 0 0 0 0 0 0 0 0 -0 0 0 0 0 0 0 0 0 0 0 0 0 0 0 0 0 0
0 0 -0 0 0 0 0 0 0 0 0 0 0 0 0 0 -0 0 0 0 0 0 0 0 0 0 0 0 0 0 0 0
0 0 -0 0 0 0 0 0 0 0 0 0 0 0 0 0 0 0 0 0 0 0 0 0 0 0 0 0 0 0 0 0
0 0 -0 0 0 0 0 0 0 0 0 0 0 0 0 0 0 0 0 0 0 0 0 0 0 0 0 0 0 0 0 0
0 0 0 -0 0 0 0 0 0 0 0 0 0 0 0 0 0 0 0 0 0 0 0 0 0 0 0 0 0 0 0 0
0 0 0 0 0 0 0 0 0 0 0 0 0 0 0 0 0 0 0 0 0 0 0 0 0 0 0 0 0 0 0 0
0 0 0 0 0 0 0 0 0 0 0 0 0 0 0 0 0 0 0 0 0 0 0 0 0 0 0 0 0 0 0 0
0 0 -0 0 0 0 0 0 0 -0 0 0 0 -0 0 0 -0 -0 0 0 0 0 0 0 0 0 0 0 0 0 0 0
0 0 -0 0 0 0 0 0 0 -0 0 0 0 0 0 0 0 -0 0 0 0 0 0 0 0 0 0 0 0 0 0 0
0 0 0 0 0 0 0 0 0 0 0 0 -0 -0 -0 -0 0 0 -0 0 0 0 0 0 0 0 0 0 0 0 0 0
0 0 0 0 0 0 0 0 0 0 0 0 0 -0 -0 -0 -0 -0 0 0 0 0 0 0 0 0 0 0 0 0 0 0
0 -0 0 0 0 0 0 0 0 0 0 0 0 -0 -0 -0 -0 -0 0 0 0 0 0 0 0 0 0 0 0 0 0 0
0 -0 -0 0 0 0 0 0 0 0 0 0 0 0 0 -0 0 -0 0 -0 -0 0 0 0 0 0 0 0 0 0 0 0
0 0 -0 -0 0 0 0 0 0 0 0 0 0 -0 -0 0 0 0 0 0 0 0 0 0 0 0 0 0 0 0 0 0
0 0 0 0 -0 0 0 0 0 0 0 0 0 -0 -0 0 0 0 0 0 0 0 0 0 0 0 0 0 0 0 0 0
0 0 0 0 0 0 0 0 0 0 0 0 0 0 0 0 0 0 0 0 0 0 0 0 0 0 0 0 0 0 0 0
0 0 0 0 0 0 0 0 0 0 0 0 0 0 0 0 0 0 0 0 0 0 0 0 0 0 0 0 0 0 0 0
0 0 0 0 -0 0 0 0 0 0 0 0 0 0 0 0 0 0 0 0 0 0 0 0 0 0 0 0 0 0 0 0
0 0 0 0 0 0 0 0 0 0 0 0 0 0 0 0 0 0 0 0 0 0 0 0 0 0 0 0 0 0 0 0
Wind_Speed_500mb
78 75 69 63 53 47 38 31 26 29 31 30 29 30 37 50 59 86 97 100 99 98 94 96 94 89 85 82 81 75 67 55
64 78 74 63 55 50 41 36 34 38 38 37 35 34 47 69 74 90 89 91 94 91 93 98 97 93 90 86 78 68 59 53
58 84 78 68 61 51 43 39 38 41 40 39 43 45 45 65 79 88 90 92 94 90 89 96 100 96 93 88 81 75 68 60
71 89 84 71 62 54 47 41 42 43 43 43 47 49 53 59 75 88 96 101 97 96 88 97 100 101 102 94 86 81 80 67
72 93 85 74 67 54 44 45 43 43 45 49 50 55 66 65 70 89 103 98 101 99 97 94 101 104 100 98 92 86 84 74
75 102 96 82 66 57 47 47 46 45 46 43 44 47 54 70 79 76 106 108 109 107 106 103 102 99 97 98 99 90 81 81
75 91 96 81 65 56 51 51 48 48 44 43 41 38 34 50 55 92 69 115 118 113 112 103 101 99 97 92 89 89 86 71
72 88 95 80 71 63 55 52 51 50 44 43 37 29 28 30 33 59 89 79 111 116 105 102 101 97 92 96 94 81 61 66
87 98 99 87 75 66 59 54 51 50 47 46 35 30 20 28 25 48 58 85 106 107 105 99 100 93 90 88 85 77 73 71
84 92 90 84 75 68 61 53 49 46 49 50 47 36 24 17 23 48 45 68 77 92 110 94 93 88 85 86 82 73 66 62
46 85 91 82 71 65 57 52 48 46 49 52 48 47 33 24 20 35 42 56 78 96 105 107 92 89 88 79 69 67 63 67
39 54 86 77 66 62 57 54 52 48 51 55 53 50 45 36 27 26 31 50 69 78 87 98 108 96 66 82 86 80 70 68
22 44 47 76 67 63 59 55 56 47 47 54 60 52 52 45 40 37 36 36 45 52 72 64 68 77 76 77 71 70 65 66
43 35 53 69 71 65 60 58 59 50 47 53 59 59 56 52 46 46 44 42 44 46 49 58 61 68 68 70 65 66 62 59
29 18 38 60 58 67 61 60 60 55 51 56 58 59 55 52 45 47 47 46 43 42 44 49 57 62 65 67 64 67 61 63
38 19 31 45 53 60 62 59 60 58 56 58 59 55 53 50 46 48 49 48 41 36 38 40 46 55 61 65 64 69 72 72
39 3 17 37 35 53 62 61 62 61 61 56 59 57 57 54 48 45 47 48 45 43 46 49 53 58 55 53 54 59 62 62
46 47 23 23 23 27 61 65 62 64 63 58 57 55 53 57 50 44 47 55 62 58 58 60 59 58 54 51 49 52 56 59
45 50 51 28 31 39 47 53 61 63 66 63 56 55 56 56 57 61 58 57 59 61 63 60 61 59 56 54 54 54 54 52
Wind_Direction_500mb
212 213 212 216 224 229 228 235 224 205 199 198 204 213 184 183 184 177 184 187 197 198 196 192 188 185 183 181 182 185 191 187
218 205 206 208 215 218 222 230 212 202 199 196 198 194 183 184 184 177 181 191 199 197 198 194 190 189 188 187 186 187 188 193
207 197 200 205 214 214 218 219 209 197 202 201 195 193 195 189 183 186 187 193 198 201 200 196 195 191 192 190 190 188 193 197
193 193 195 202 210 215 212 210 203 192 194 199 200 201 198 201 203 203 202 201 198 202 202 199 198 198 196 194 193 192 193 195
200 196 195 203 210 212 208 199 198 195 197 204 207 206 205 201 208 203 202 202 202 203 203 204 202 202 201 199 198 196 199 193
210 204 202 203 206 208 202 194 192 195 202 208 206 211 217 216 211 213 210 208 205 206 204 203 204 204 203 202 200 200 202 197
231 204 199 198 201 203 201 192 193 196 202 205 209 219 227 219 222 221 210 212 209 206 206 207 204 206 204 203 201 199 202 204
207 201 197 195 199 200 198 194 193 198 203 210 210 224 231 219 225 232 221 202 204 208 207 202 202 206 205 204 204 200 199 199
209 204 195 192 196 196 196 195 193 196 202 205 210 215 219 232 245 227 207 201 198 205 199 201 202 203 204 208 203 199 209 220
192 191 192 193 195 196 195 194 192 193 201 196 202 202 213 221 217 211 207 197 200 206 199 191 192 194 199 198 197 199 210 223
191 190 193 194 195 196 193 198 197 192 196 198 201 201 201 202 193 208 214 210 208 205 206 201 195 197 196 195 211 221 229 226
220 205 196 192 193 195 194 198 199 195 194 198 198 199 199 194 193 203 200 207 207 209 205 206 203 204 211 221 229 233 226 225
298 229 220 192 193 194 197 201 200 198 195 193 199 196 197 202 207 204 204 204 205 208 213 206 202 210 218 223 224 217 224 231
358 222 226 216 195 196 198 203 202 194 196 195 196 203 204 206 209 205 202 200 204 206 206 210 207 213 217 215 222 224 234 239
317 332 227 225 221 200 200 201 204 195 195 198 197 203 207 206 202 198 197 196 195 195 200 205 218 224 224 224 229 229 240 249
335 243 228 224 223 219 210 204 206 199 198 198 199 203 205 205 202 194 195 195 196 198 200 208 217 223 226 230 234 240 245 249
20 29 233 248 228 232 226 219 207 203 202 202 200 200 201 201 199 194 197 199 199 202 207 215 218 225 227 232 235 239 241 244
13 12 346 220 231 248 231 227 223 209 206 205 205 206 202 199 197 196 196 202 208 211 215 217 221 224 226 229 230 234 237 240
5 6 3 355 206 215 219 223 226 222 213 207 205 206 205 200 198 202 202 202 203 208 214 217 221 223 225 227 231 237 237 230
Wind_Speed_850mb
78 75 69 63 53 47 38 31 26 29 31 30 29 30 37 50 59 86 97 100 99 98 94 96 94 89 85 82 81 75 67 55
64 78 74 63 55 50 41 36 34 38 38 37 35 34 47 69 74 90 89 91 94 91 93 98 97 93 90 86 78 68 59 53
58 84 78 68 61 51 43 39 38 41 40 39 43 45 45 65 79 88 90 92 94 90 89 96 100 96 93 88 81 75 68 60
71 89 84 71 62 54 47 41 42 43 43 43 47 49 53 59 75 88 96 101 97 96 88 97 100 101 102 94 86 81 80 67
72 93 85 74 67 54 44 45 43 43 45 49 50 55 66 65 70 89 103 98 101 99 97 94 101 104 100 98 92 86 84 74
75 102 96 82 66 57 47 47 46 45 46 43 44 47 54 70 79 76 106 108 109 107 106 103 102 99 97 98 99 90 81 81
75 91 96 81 65 56 51 51 48 48 44 43 41 38 34 50 55 92 69 115 118 113 112 103 101 99 97 92 89 89 86 71
72 88 95 80 71 63 55 52 51 50 44 43 37 29 28 30 33 59 89 79 111 116 105 102 101 97 92 96 94 81 61 66
87 98 99 87 75 66 59 54 51 50 47 46 35 30 20 28 25 48 58 85 106 107 105 99 100 93 90 88 85 77 73 71
84 92 90 84 75 68 61 53 49 46 49 50 47 36 24 17 23 48 45 68 77 92 110 94 93 88 85 86 82 73 66 62
46 85 91 82 71 65 57 52 48 46 49 52 48 47 33 24 20 35 42 56 78 96 105 107 92 89 88 79 69 67 63 67
39 54 86 77 66 62 57 54 52 48 51 55 53 50 45 36 27 26 31 50 69 78 87 98 108 96 66 82 86 80 70 68
22 44 47 76 67 63 59 55 56 47 47 54 60 52 52 45 40 37 36 36 45 52 72 64 68 77 76 77 71 70 65 66
43 35 53 69 71 65 60 58 59 50 47 53 59 59 56 52 46 46 44 42 44 46 49 58 61 68 68 70 65 66 62 59
29 18 38 60 58 67 61 60 60 55 51 56 58 59 55 52 45 47 47 46 43 42 44 49 57 62 65 67 64 67 61 63
38 19 31 45 53 60 62 59 60 58 56 58 59 55 53 50 46 48 49 48 41 36 38 40 46 55 61 65 64 69 72 72
39 3 17 37 35 53 62 61 62 61 61 56 59 57 57 54 48 45 47 48 45 43 46 49 53 58 55 53 54 59 62 62
46 47 23 23 23 27 61 65 62 64 63 58 57 55 53 57 50 44 47 55 62 58 58 60 59 58 54 51 49 52 56 59
45 50 51 28 31 39 47 53 61 63 66 63 56 55 56 56 57 61 58 57 59 61 63 60 61 59 56 54 54 54 54 52
Wind_Direction_850mb
212 213 212 216 224 229 228 235 224 205 199 198 204 213 184 183 184 177 184 187 197 198 196 192 188 185 183 181 182 185 191 187
218 205 206 208 215 218 222 230 212 202 199 196 198 194 183 184 184 177 181 191 199 197 198 194 190 189 188 187 186 187 188 193
207 197 200 205 214 214 218 219 209 197 202 201 195 193 195 189 183 186 187 193 198 201 200 196 195 191 192 190 190 188 193 197
193 193 195 202 210 215 212 210 203 192 194 199 200 201 198 201 203 203 202 201 198 202 202 199 198 198 196 194 193 192 193 195
200 196 195 203 210 212 208 199 198 195 197 204 207 206 205 201 208 203 202 202 202 203 203 204 202 202 201 199 198 196 199 193
210 204 202 203 206 208 202 194 192 195 202 208 206 211 217 216 211 213 210 208 205 206 204 203 204 204 203 202 200 200 202 197
231 204 199 198 201 203 201 192 193 196 202 205 209 219 227 219 222 221 210 212 209 206 206 207 204 206 204 203 201 199 202 204
207 201 197 195 199 200 198 194 193 198 203 210 210 224 231 219 225 232 221 202 204 208 207 202 202 206 205 204 204 200 199 199
209 204 195 192 196 196 196 195 193 196 202 205 210 215 219 232 245 227 207 201 198 205 199 201 202 203 204 208 203 199 209 220
192 191 192 193 195 196 195 194 192 193 201 196 202 202 213 221 217 211 207 197 200 206 199 191 192 194 199 198 197 199 210 223
191 190 193 194 195 196 193 198 197 192 196 198 201 201 201 202 193 208 214 210 208 205 206 201 195 197 196 195 211 221 229 226
220 205 196 192 193 195 194 198 199 195 194 198 198 199 199 194 193 203 200 207 207 209 205 206 203 204 211 221 229 233 226 225
298 229 220 192 193 194 197 201 200 198 195 193 199 196 197 202 207 204 204 204 205 208 213 206 202 210 218 223 224 217 224 231
358 222 226 216 195 196 198 203 202 194 196 195 196 203 204 206 209 205 202 200 204 206 206 210 207 213 217 215 222 224 234 239
317 332 227 225 221 200 200 201 204 195 195 198 197 203 207 206 202 198 197 196 195 195 200 205 218 224 224 224 229 229 240 249
335 243 228 224 223 219 210 204 206 199 198 198 199 203 205 205 202 194 195 195 196 198 200 208 217 223 226 230 234 240 245 249
20 29 233 248 228 232 226 219 207 203 202 202 200 200 201 201 199 194 197 199 199 202 207 215 218 225 227 232 235 239 241 244
13 12 346 220 231 248 231 227 223 209 206 205 205 206 202 199 197 196 196 202 208 211 215 217 221 224 226 229 230 234 237 240
5 6 3 355 206 215 219 223 226 222 213 207 205 206 205 200 198 202 202 202 203 208 214 217 221 223 225 227 231 237 237 230